Volver al catálogo

FENGYUN 1C DEB

ActivoPO
NORAD 32156·DEBRIS·🇨🇳 China

Lanzado May 10, 1999 desde Taiyuan Satellite Launch Center

Loading…

Próximos Pases (próximas 24 horas)

TLE

EnvejeciendoSource: Space-Track

Época: Sep 10, 2026, 08:05 UTC

1 32156U 99025CTA 26253.33685434  .00000364  00000-0  14794-3 0  9997
2 32156  99.3618  89.3088 0081309 355.4044   4.6381 14.32389657687086

Sigue FENGYUN 1C DEB en tiempo real con AllMySat

Download on the App Store